Wind_Speed
5 6 5 6 5 7 8 5 5 4 7 6 8 12 15 12 8 8 8 7 7 7 9 9 7 5 4 4 4 5 6 8 10 10 11 12 14 15 15 14 15 14 15 14
4 3 6 6 8 9 9 6 9 5 16 9 6 6 6 9 12 12 12 11 9 8 13 14 12 10 7 5 4 4 5 6 7 8 10 11 13 14 15 15 16 16 17 17
4 3 4 8 13 15 6 6 8 9 10 6 7 9 14 14 14 15 12 11 11 10 15 13 10 8 6 5 4 4 4 6 7 9 10 12 13 14 15 16 17 18 18 18
3 3 4 6 3 3 11 7 12 5 5 7 7 4 4 4 13 10 10 10 8 16 16 14 13 10 8 7 6 3 3 4 7 9 10 12 13 16 17 17 19 19 18 18
3 3 7 4 3 6 7 7 9 13 6 3 2 3 2 4 7 10 9 12 19 21 18 15 14 10 9 8 6 3 3 4 6 8 10 12 14 16 17 17 18 17 17 17
2 3 6 4 3 2 2 5 3 5 8 8 3 3 4 4 6 7 14 20 20 17 15 14 12 9 8 6 5 1 2 4 6 7 9 11 12 15 14 15 15 15 16 16
4 4 8 7 5 4 2 5 2 2 5 8 6 4 3 8 5 13 19 18 17 16 15 13 11 9 8 6 4 2 2 4 6 7 9 10 11 13 13 14 15 16 18 19
3 3 8 6 4 6 5 2 2 2 4 6 3 5 7 7 8 11 13 15 15 14 13 11 10 9 7 5 3 2 4 5 7 8 9 9 11 14 14 13 16 18 19 22
10 7 4 7 5 6 5 4 4 3 4 7 8 6 8 7 8 11 16 15 13 14 13 11 11 9 6 4 3 4 6 7 8 9 10 10 13 14 17 15 15 19 19 21
2 6 10 8 6 5 7 7 5 4 6 8 8 8 8 8 8 10 16 17 16 14 12 11 10 9 5 3 4 6 9 10 10 11 13 13 14 14 16 17 18 20 20 22
5 6 4 7 8 8 7 5 5 5 8 10 8 8 7 8 8 12 15 16 15 14 13 11 9 7 4 4 6 9 10 11 12 14 15 16 17 17 18 17 16 17 20 19
7 7 5 5 3 5 9 9 9 8 5 4 8 9 7 6 13 16 16 16 13 12 10 8 7 5 4 6 8 10 12 13 15 16 17 18 19 22 20 20 19 20 20 17
13 4 6 1 4 2 6 7 7 7 5 8 6 9 11 6 15 16 15 14 12 11 8 6 6 8 6 7 8 11 13 16 17 18 19 20 21 22 24 27 24 23 23 24
5 5 2 4 4 6 3 4 8 5 7 8 12 14 15 13 13 16 15 12 9 7 7 7 9 11 9 9 10 13 15 16 17 19 20 21 21 23 23 23 19 27 26 28
8 5 2 3 4 4 6 7 6 6 6 6 13 15 17 13 13 13 9 8 7 8 10 9 11 14 11 12 14 16 18 19 19 20 20 21 22 22 23 25 25 26 27 31
5 6 5 7 9 7 6 7 8 9 8 6 10 13 14 12 9 8 8 9 9 12 11 11 14 15 14 15 18 20 21 21 20 21 21 23 24 24 25 25 25 25 24 27
4 3 3 5 6 6 7 5 5 6 6 8 10 12 10 8 7 8 8 8 11 13 14 16 19 18 18 19 20 22 23 22 21 22 23 25 26 25 25 24 23 23 26 27
3 3 6 5 6 7 5 5 9 11 7 13 10 8 8 8 8 8 10 10 13 15 17 19 20 21 20 19 20 23 23 24 24 25 27 26 27 26 25 25 24 23 25 25
2 3 5 6 8 7 6 7 11 12 9 10 12 10 9 8 10 12 12 13 15 18 25 20 18 18 21 21 20 21 22 24 26 27 26 27 24 26 26 25 24 24 24 22
2 0 3 5 9 10 8 11 9 12 12 11 8 7 8 11 11 13 14 18 21 23 25 25 22 21 21 22 21 22 23 24 26 28 27 25 25 26 25 24 23 24 24 23
5 5 6 7 7 7 8 14 14 12 10 9 9 11 13 14 14 15 16 14 23 22 25 26 24 24 22 21 22 24 25 27 27 27 26 24 23 23 22 23 23 23 24 23
3 2 3 3 4 5 7 8 8 7 8 10 12 15 17 21 22 24 25 23 30 25 25 26 24 21 21 21 22 24 26 27 27 26 26 25 22 21 21 22 24 25 25 23
1 1 3 5 6 4 4 8 10 11 13 16 19 21 22 24 22 15 11 21 20 22 23 25 25 24 22 22 23 24 26 28 28 26 25 23 21 22 24 25 23 19 22 24
3 4 6 5 6 7 7 17 15 16 17 18 21 22 22 21 26 23 25 27 24 24 25 27 25 23 21 23 23 24 26 28 27 26 25 23 22 23 22 24 25 24 25 24
5 6 6 7 7 10 15 16 18 19 19 21 22 21 21 21 22 28 25 27 27 26 28 28 24 22 22 24 25 27 27 27 25 23 22 22 23 24 22 22 24 24 24 24
10 11 13 13 14 16 18 17 15 20 20 17 22 23 24 23 23 25 26 27 27 27 27 27 26 25 24 24 24 25 26 25 23 22 22 24 26 28 28 26 26 27 25 23
15 13 14 16 17 17 17 17 15 17 19 20 20 24 24 23 24 23 24 26 26 27 27 27 26 25 24 25 25 25 24 23 23 24 27 28 29 30 29 27 25 26 25 25
Wind_Direction
256 240 209 210 210 186 200 202 179 272 215 257 212 197 200 188 166 166 173 165 170 163 170 163 160 157 144 115 90 72 62 51 37 29 27 22 21 19 14 11 7 2 356 354
281 288 244 263 241 220 220 219 253 248 264 212 218 151 156 186 180 184 183 183 172 172 172 178 179 175 166 149 122 96 75 60 43 35 31 25 22 19 15 15 11 6 6 1
260 335 328 289 231 211 197 209 187 203 227 169 209 202 196 192 189 190 182 175 176 178 179 176 176 169 161 152 139 115 62 38 24 19 19 17 16 13 11 9 6 5 5 2
253 3 247 243 169 187 217 238 219 259 210 203 209 208 195 203 188 178 170 167 167 171 172 171 170 171 169 163 159 134 63 36 20 14 12 10 7 5 2 1 2 1 1 2
202 206 293 285 211 179 176 274 211 227 206 213 129 77 349 186 179 173 170 166 171 174 168 169 172 173 173 166 161 137 53 27 16 7 1 359 358 356 354 351 352 353 355 355
147 212 235 236 179 169 145 287 184 175 204 169 174 172 246 168 134 124 148 162 162 164 166 170 172 175 173 167 166 140 33 12 2 356 352 349 348 349 350 350 349 350 350 352
203 242 285 248 162 155 146 247 196 211 184 162 190 198 196 133 107 144 152 159 161 165 170 175 174 174 172 175 189 197 333 339 342 342 343 342 342 347 344 343 342 346 345 349
154 193 268 149 79 177 211 205 209 185 173 180 145 141 140 131 138 148 150 155 164 163 169 173 178 179 182 198 202 257 307 318 330 333 336 334 333 339 339 339 339 341 342 341
186 210 239 212 200 210 172 181 210 199 178 171 153 175 161 159 157 160 163 164 169 172 173 182 189 193 196 208 236 273 293 307 319 324 330 330 329 330 331 331 334 334 335 334
145 232 233 226 238 234 198 204 200 198 179 171 174 170 175 161 165 167 170 170 170 171 179 183 188 203 223 247 277 289 296 305 313 317 319 318 319 321 325 321 326 328 326 325
257 283 290 270 233 220 224 221 193 182 183 187 166 184 172 173 171 170 170 175 176 180 185 193 200 214 232 271 284 292 299 306 307 310 312 313 315 315 316 310 307 310 311 312
245 219 207 225 233 199 202 208 206 170 174 192 182 176 161 166 170 169 172 174 179 187 192 201 216 244 275 290 295 299 301 306 309 309 309 308 309 310 308 309 309 311 312 304
251 200 199 199 210 181 213 214 198 185 173 170 171 163 157 140 168 172 175 179 188 198 207 217 253 275 291 299 297 294 293 296 298 299 301 303 304 303 303 308 307 307 310 315
214 134 221 193 217 210 205 184 178 147 166 164 158 166 156 153 165 171 180 190 194 199 218 249 267 278 293 296 292 289 289 291 289 293 296 296 297 298 299 298 293 300 303 308
221 186 164 138 150 171 168 143 154 161 150 142 159 153 156 157 166 180 180 186 204 226 242 252 262 274 289 295 293 293 293 291 292 292 290 292 293 293 291 291 289 288 296 302
189 179 171 193 191 182 162 173 165 170 166 152 154 162 168 165 165 172 187 207 220 239 257 265 271 280 293 295 296 292 289 288 287 285 286 288 289 289 289 288 288 286 286 288
146 260 240 240 200 185 192 173 161 151 139 148 158 155 157 169 189 213 231 246 261 270 275 275 278 288 290 290 288 287 286 286 285 283 282 284 286 286 288 285 279 281 283 289
254 213 198 201 180 173 170 165 156 154 153 159 160 173 176 191 219 245 260 271 274 275 276 279 285 289 288 286 285 285 286 285 285 282 286 285 285 288 290 289 284 281 287 292
168 199 210 205 183 154 150 149 151 156 152 170 170 185 203 228 247 262 275 276 277 281 283 290 291 289 287 289 290 290 287 286 286 283 281 282 281 284 285 281 278 280 282 286
53 87 176 147 157 149 132 145 147 178 179 178 186 204 230 250 261 272 278 273 275 277 289 290 290 285 286 290 294 293 291 288 285 283 280 279 282 283 284 280 277 277 275 280
57 74 97 106 113 122 169 183 178 181 189 203 215 237 250 272 279 283 282 276 287 294 294 296 292 286 284 287 291 293 292 290 287 283 281 279 278 278 280 282 281 278 277 279
37 48 81 117 151 154 165 177 192 214 235 248 256 264 271 276 281 283 282 270 291 293 293 291 291 286 283 287 288 289 290 290 287 285 284 282 279 284 284 284 281 278 275 276
263 203 172 191 201 210 215 230 238 248 259 266 272 275 272 275 276 266 283 289 289 296 295 294 295 289 283 280 279 283 285 286 281 277 276 276 277 276 276 277 279 284 291 286
284 274 261 267 254 253 258 262 270 274 273 276 276 278 277 275 283 284 286 292 293 293 289 290 290 288 280 277 280 284 286 286 285 285 285 281 272 273 273 276 279 282 281 281
294 286 275 265 250 255 268 276 282 281 281 282 284 286 287 285 273 290 291 292 293 292 290 292 287 283 277 280 282 284 284 284 284 283 276 270 272 275 277 279 281 285 285 287
310 301 295 291 285 288 287 287 272 282 287 283 291 296 296 294 291 286 287 289 289 289 286 290 290 289 286 283 282 282 283 284 281 275 274 272 275 279 281 280 281 290 291 289
307 303 302 303 300 297 295 289 279 274 282 277 272 284 286 288 286 284 283 284 287 290 291 291 289 288 284 283 283 282 282 281 275 270 276 278 279 280 278 278 280 286 286 290
Height
814 813 808 804 805 815 825 811 810 799 808 789 791 792 790 791 799 805 809 812 814 817 819 821 822 823 824 825 825 824 823 822 821 821 819 819 816 814 812 810 808 805 802 799
814 807 813 808 807 807 810 806 808 803 792 785 781 788 793 794 796 799 802 805 809 813 815 816 817 819 820 821 821 821 820 819 819 818 817 816 814 813 811 809 807 805 801 798
818 809 810 811 793 794 796 794 786 795 770 778 780 782 780 784 788 790 795 800 804 808 811 814 817 819 820 820 820 820 820 820 819 819 817 816 813 812 810 808 806 803 800 797
823 816 808 778 779 781 786 779 782 774 770 772 771 773 775 778 780 787 791 796 801 804 808 811 813 816 817 818 819 818 819 819 818 817 816 814 813 811 809 807 804 802 799 797
817 828 799 766 782 783 782 769 772 771 772 773 777 777 776 777 778 782 787 792 797 801 805 808 811 813 815 816 817 818 818 818 817 816 814 812 811 809 807 804 802 801 799 797
832 819 800 769 771 774 773 780 763 769 773 777 779 783 783 777 779 784 788 793 798 802 805 808 810 812 813 814 816 816 816 816 815 814 812 811 810 807 806 804 802 800 798 796
825 822 802 776 773 774 776 770 763 762 768 775 777 774 773 777 782 784 788 793 797 800 802 806 809 810 812 813 814 814 814 814 813 813 812 810 808 806 804 802 800 798 795 793
824 821 809 772 777 776 766 764 762 763 766 771 772 775 776 779 783 787 790 794 796 799 802 805 807 808 809 811 812 812 812 812 812 810 809 808 806 804 802 800 798 796 793 789
792 782 766 768 759 761 762 763 762 762 763 766 772 775 776 779 782 784 788 792 795 797 800 803 805 806 807 808 809 809 809 809 809 808 807 806 804 802 799 797 795 793 790 787
775 758 761 761 761 760 759 759 759 760 763 766 768 770 774 776 780 783 785 787 791 795 798 801 803 805 806 806 807 807 806 806 805 805 804 803 801 800 797 795 793 790 787 785
771 760 758 757 758 755 757 756 757 758 759 762 766 769 771 776 778 780 784 787 790 793 796 798 800 802 803 803 803 803 802 802 802 802 801 799 798 796 794 792 791 788 785 783
750 749 747 749 747 749 753 753 754 756 759 761 762 765 769 773 776 780 783 786 790 792 794 796 798 799 800 801 800 799 798 798 797 797 796 795 794 791 790 788 786 783 781 779
737 740 743 743 746 746 749 749 751 753 754 758 762 765 768 773 777 780 784 786 788 790 793 795 795 795 795 796 796 795 795 794 793 793 791 790 789 787 783 780 778 776 775 773
738 742 745 745 743 745 746 747 751 754 756 758 761 764 767 772 776 779 781 783 786 787 789 791 792 792 792 792 791 791 790 790 788 786 785 783 782 781 779 776 773 770 767 766
734 735 735 738 741 743 745 746 751 754 756 759 761 763 766 770 774 777 780 782 784 784 785 786 786 787 788 788 787 785 784 783 782 780 779 777 775 774 774 772 768 764 761 758
732 733 734 735 736 739 741 745 746 749 752 756 758 761 765 768 772 775 777 779 780 780 780 781 781 782 783 782 781 779 778 777 776 774 772 770 770 768 767 765 762 759 755 752
733 737 738 737 737 738 740 743 746 750 755 758 761 764 767 768 770 773 775 777 778 778 778 777 775 776 777 776 775 772 771 770 770 768 766 764 763 761 760 758 756 752 748 746
727 729 731 732 733 738 741 743 745 749 753 756 760 763 766 769 769 770 771 771 772 773 773 772 772 770 770 770 768 766 765 763 762 760 758 756 755 754 752 750 748 745 741 739
730 731 731 732 733 734 739 742 746 751 754 756 758 762 764 765 766 766 767 767 767 767 764 765 765 764 762 761 761 759 758 756 753 752 750 748 747 746 744 742 739 737 734 732
731 733 735 732 735 737 740 744 747 750 752 754 757 760 762 761 762 762 762 760 759 759 758 757 757 755 754 753 753 752 750 748 746 744 742 740 739 737 736 734 732 729 727 724
736 737 738 738 739 741 742 745 746 748 751 753 755 756 758 758 758 757 756 753 749 752 750 749 748 747 747 746 745 744 742 741 739 737 735 733 732 731 729 726 724 722 719 717
739 742 741 742 744 744 744 746 747 748 750 750 751 753 753 751 751 750 748 747 742 744 742 740 740 739 739 739 738 736 735 733 731 729 727 726 726 724 722 719 716 713 711 708
742 743 743 744 745 745 745 745 745 746 746 746 746 746 746 744 744 744 740 737 736 736 735 732 732 732 733 732 730 729 727 725 723 721 720 720 718 717 714 712 709 706 705 702
744 743 743 744 744 744 743 741 742 741 740 740 739 739 739 738 734 734 732 729 730 729 728 726 726 725 725 724 722 720 718 716 715 714 713 712 710 708 707 704 702 700 697 694
743 743 742 742 741 740 739 738 736 735 734 733 732 732 731 731 730 724 726 724 723 722 720 719 718 718 717 715 713 712 710 708 707 706 705 703 702 700 699 698 695 693 690 687
741 739 738 737 737 736 734 732 731 728 728 726 725 724 723 723 722 720 719 717 716 714 712 710 709 708 707 705 704 703 701 700 699 698 697 696 694 693 691 689 687 685 683 681
739 737 736 734 732 731 729 728 727 724 723 722 720 718 716 715 714 713 711 709 708 705 703 701 700 699 698 696 695 693 692 691 691 690 688 687 686 684 683 681 679 678 676 673